SWA2043 PHOG-PHNL

Flight info

Callsign SWA2043
Flight time 0h 29m
Altitude 14000
Route MAUI5 OGG LNY JULLE5
Aircraft B738/M-SDE2E3FGHIRWXY/LB1

Departure

Time 2026-04-25 19:10
Airport Kahului International Airport (PHOG)

Arrival

Time 2026-04-25 19:39
Airport Daniel K. Inouye International Airport (PHNL)
Time Latitude Longitude Altitude Speed Heading
2026-04-25 18:59 20.89335 -156.43645 46 ft 0 kts 304°
2026-04-25 19:05 20.89334 -156.43642 46 ft 2 kts 305°
2026-04-25 19:05 20.89325 -156.43611 48 ft 2 kts 270°
2026-04-25 19:05 20.89326 -156.43596 48 ft 2 kts 253°
2026-04-25 19:06 20.89332 -156.43582 49 ft 2 kts 237°
2026-04-25 19:06 20.89346 -156.43565 48 ft 1 kts 218°
2026-04-25 19:06 20.89347 -156.43565 48 ft 0 kts 218°
2026-04-25 19:07 20.89346 -156.43565 48 ft 2 kts 218°
2026-04-25 19:08 20.89169 -156.43634 53 ft 13 kts 205°
2026-04-25 19:08 20.89101 -156.43677 53 ft 11 kts 211°
2026-04-25 19:09 20.89033 -156.43707 54 ft 2 kts 199°
2026-04-25 19:09 20.89002 -156.43710 55 ft 10 kts 171°
2026-04-25 19:09 20.89218 -156.43424 57 ft 67 kts 41°
2026-04-25 19:10 20.89832 -156.42949 26 ft 148 kts 36°
2026-04-25 19:10 20.90782 -156.42198 425 ft 179 kts 31°
2026-04-25 19:10 20.91925 -156.41882 1297 ft 185 kts
2026-04-25 19:10 20.93314 -156.41653 1671 ft 210 kts
2026-04-25 19:11 20.94670 -156.41400 1875 ft 204 kts 12°
2026-04-25 19:11 20.96209 -156.41064 2076 ft 241 kts 11°
2026-04-25 19:11 20.97925 -156.40715 2700 ft 257 kts 11°
2026-04-25 19:11 20.99660 -156.40387 3615 ft 261 kts
2026-04-25 19:12 21.01461 -156.40132 4550 ft 264 kts
2026-04-25 19:12 21.03292 -156.40013 5408 ft 269 kts
2026-04-25 19:12 21.05157 -156.39916 6283 ft 273 kts
2026-04-25 19:12 21.07044 -156.39565 7175 ft 276 kts
2026-04-25 19:13 21.08938 -156.39258 8008 ft 280 kts
2026-04-25 19:13 21.11018 -156.39003 7564 ft 314 kts
2026-04-25 19:13 21.13250 -156.38612 7655 ft 330 kts 11°
2026-04-25 19:13 21.15451 -156.38132 7302 ft 321 kts 11°
2026-04-25 19:14 21.17627 -156.37676 6895 ft 315 kts 11°
2026-04-25 19:14 21.19050 -156.37395 6833 ft 304 kts 10°
2026-04-25 19:14 21.21709 -156.36945 6933 ft 275 kts
2026-04-25 19:14 21.23380 -156.37143 7758 ft 220 kts 337°
2026-04-25 19:15 21.24513 -156.38278 7893 ft 242 kts 294°
2026-04-25 19:15 21.24806 -156.40067 8281 ft 254 kts 270°
2026-04-25 19:15 21.24763 -156.42015 8857 ft 261 kts 268°
2026-04-25 19:15 21.24688 -156.43957 9478 ft 265 kts 267°
2026-04-25 19:16 21.24071 -156.45844 9653 ft 286 kts 229°
2026-04-25 19:16 21.22558 -156.47267 10315 ft 294 kts 220°
2026-04-25 19:16 21.21072 -156.48825 10728 ft 313 kts 228°
2026-04-25 19:16 21.19554 -156.50630 10980 ft 336 kts 227°
2026-04-25 19:17 21.17883 -156.52501 11237 ft 357 kts 226°
2026-04-25 19:17 21.16141 -156.54398 12051 ft 359 kts 225°
2026-04-25 19:17 21.14362 -156.56328 12611 ft 368 kts 225°
2026-04-25 19:17 21.12574 -156.58258 13454 ft 368 kts 225°
2026-04-25 19:18 21.10770 -156.60199 13890 ft 372 kts 225°
2026-04-25 19:18 21.08920 -156.62186 13897 ft 375 kts 225°
2026-04-25 19:18 21.07100 -156.64139 13898 ft 371 kts 225°
2026-04-25 19:18 21.05284 -156.66086 13901 ft 371 kts 225°
2026-04-25 19:19 21.03453 -156.68048 13901 ft 371 kts 225°
2026-04-25 19:19 21.01646 -156.69984 13899 ft 371 kts 225°
2026-04-25 19:19 20.99808 -156.71951 13900 ft 371 kts 225°
2026-04-25 19:19 20.98596 -156.73248 13899 ft 371 kts 225°
2026-04-25 19:20 20.96163 -156.75851 13900 ft 371 kts 225°
2026-04-25 19:20 20.94346 -156.77794 13899 ft 371 kts 225°
2026-04-25 19:20 20.92532 -156.79733 13899 ft 371 kts 225°
2026-04-25 19:20 20.90696 -156.81694 13899 ft 371 kts 225°
2026-04-25 19:21 20.88881 -156.83633 13899 ft 371 kts 225°
2026-04-25 19:21 20.85211 -156.87550 13899 ft 371 kts 225°
2026-04-25 19:21 20.83401 -156.89482 13899 ft 371 kts 225°
2026-04-25 19:22 20.81582 -156.91422 13899 ft 371 kts 225°
2026-04-25 19:22 20.79786 -156.93439 13894 ft 371 kts 231°
2026-04-25 19:22 20.77805 -156.98413 13900 ft 371 kts 265°
2026-04-25 19:23 20.77955 -157.01180 13904 ft 371 kts 282°
2026-04-25 19:23 20.79536 -157.06410 13898 ft 371 kts 289°
2026-04-25 19:23 20.80383 -157.09032 13896 ft 371 kts 289°
2026-04-25 19:24 20.81228 -157.11659 13899 ft 373 kts 289°
2026-04-25 19:24 20.82080 -157.14302 13906 ft 386 kts 289°
2026-04-25 19:24 20.83879 -157.19890 13888 ft 398 kts 289°
2026-04-25 19:25 20.85609 -157.25258 13893 ft 365 kts 289°
2026-04-25 19:25 20.86410 -157.27747 13895 ft 345 kts 289°
2026-04-25 19:25 20.87177 -157.30131 13902 ft 341 kts 289°
2026-04-25 19:26 20.87947 -157.32529 13842 ft 338 kts 289°
2026-04-25 19:26 20.88700 -157.34874 13425 ft 338 kts 289°
2026-04-25 19:26 20.89475 -157.37286 12897 ft 341 kts 289°
2026-04-25 19:26 20.90235 -157.39655 12388 ft 338 kts 289°
2026-04-25 19:27 20.90989 -157.42009 11904 ft 334 kts 289°
2026-04-25 19:27 20.91492 -157.43578 11734 ft 326 kts 289°
2026-04-25 19:27 20.92445 -157.46555 11455 ft 311 kts 289°
2026-04-25 19:27 20.93128 -157.48686 11311 ft 298 kts 289°
2026-04-25 19:28 20.93788 -157.50748 11173 ft 287 kts 289°
2026-04-25 19:28 20.94428 -157.52750 10852 ft 283 kts 289°
2026-04-25 19:28 20.95061 -157.54729 10558 ft 278 kts 289°
2026-04-25 19:28 20.95676 -157.56651 10374 ft 270 kts 289°
2026-04-25 19:29 20.96292 -157.58583 9844 ft 275 kts 289°
2026-04-25 19:29 20.96912 -157.60522 9395 ft 277 kts 289°
2026-04-25 19:29 20.97532 -157.62463 9001 ft 277 kts 289°
2026-04-25 19:29 20.98151 -157.64404 8601 ft 276 kts 289°
2026-04-25 19:30 20.98770 -157.66344 8201 ft 276 kts 289°
2026-04-25 19:30 20.99386 -157.68278 7802 ft 276 kts 289°
2026-04-25 19:30 21.00010 -157.70235 7398 ft 275 kts 289°
2026-04-25 19:30 21.00622 -157.72156 7000 ft 275 kts 289°
2026-04-25 19:31 21.01232 -157.74072 6603 ft 274 kts 289°
2026-04-25 19:31 21.01852 -157.76018 6199 ft 274 kts 289°
2026-04-25 19:31 21.02458 -157.77925 5905 ft 268 kts 289°
2026-04-25 19:31 21.03040 -157.79756 5884 ft 253 kts 289°
2026-04-25 19:32 21.03588 -157.81479 5893 ft 238 kts 289°
2026-04-25 19:32 21.04120 -157.83153 5902 ft 238 kts 289°
2026-04-25 19:32 21.04659 -157.84851 5714 ft 245 kts 289°
2026-04-25 19:32 21.05026 -157.86008 5441 ft 248 kts 289°
2026-04-25 19:33 21.05770 -157.88350 4911 ft 250 kts 289°
2026-04-25 19:33 21.06330 -157.90114 4513 ft 252 kts 289°
2026-04-25 19:33 21.06894 -157.91893 4114 ft 254 kts 289°
2026-04-25 19:33 21.07617 -157.93634 3699 ft 255 kts 306°
2026-04-25 19:34 21.08934 -157.94855 3307 ft 255 kts 331°
2026-04-25 19:34 21.10489 -157.95737 2952 ft 254 kts 331°
2026-04-25 19:34 21.12013 -157.96646 2879 ft 241 kts 330°
2026-04-25 19:34 21.13421 -157.97496 2888 ft 225 kts 330°
2026-04-25 19:35 21.14767 -157.98311 2900 ft 223 kts 330°
2026-04-25 19:35 21.16154 -157.99074 2899 ft 224 kts 339°
2026-04-25 19:35 21.17558 -157.99797 2757 ft 226 kts 327°
2026-04-25 19:35 21.18847 -158.00705 2613 ft 213 kts 328°
2026-04-25 19:36 21.20081 -158.01508 2433 ft 203 kts 329°
2026-04-25 19:36 21.21282 -158.02258 2273 ft 199 kts 330°
2026-04-25 19:36 21.22545 -158.02791 2131 ft 195 kts 352°
2026-04-25 19:36 21.23868 -158.02638 2038 ft 193 kts 23°
2026-04-25 19:37 21.24917 -158.01764 1974 ft 190 kts 47°
2026-04-25 19:37 21.25775 -158.00685 1822 ft 191 kts 52°
2026-04-25 19:37 21.26577 -157.99567 1632 ft 185 kts 52°
2026-04-25 19:37 21.27341 -157.98491 1351 ft 174 kts 53°
2026-04-25 19:38 21.28023 -157.97523 968 ft 158 kts 52°
2026-04-25 19:38 21.28641 -157.96599 718 ft 151 kts 55°
2026-04-25 19:38 21.29291 -157.95650 595 ft 160 kts 52°
2026-04-25 19:38 21.29933 -157.94769 394 ft 152 kts 52°
2026-04-25 19:39 21.30588 -157.93861 211 ft 153 kts 52°
2026-04-25 19:39 21.31215 -157.92963 70 ft 154 kts 52°
2026-04-25 19:39 21.31789 -157.92148 19 ft 100 kts 53°
2026-04-25 19:39 21.32060 -157.91766 15 ft 43 kts 54°
2026-04-25 19:40 21.32240 -157.91516 15 ft 41 kts 51°
2026-04-25 19:40 21.32377 -157.91379 19 ft 18 kts 13°
2026-04-25 19:40 21.32425 -157.91363 19 ft 3 kts 25°
2026-04-25 19:40 21.32457 -157.91351 19 ft 6 kts 20°
2026-04-25 19:41 21.32534 -157.91334 20 ft 16 kts
2026-04-25 19:41 21.32616 -157.91319 24 ft 0 kts 10°
2026-04-25 19:41 21.32619 -157.91319 24 ft 1 kts 10°
2026-04-25 19:41 21.32659 -157.91315 25 ft 16 kts
2026-04-25 19:42 21.32774 -157.91405 28 ft 20 kts 274°
2026-04-25 19:42 21.32775 -157.91504 28 ft 5 kts 266°
2026-04-25 19:42 21.32772 -157.91550 28 ft 9 kts 269°
2026-04-25 19:42 21.32774 -157.91631 27 ft 15 kts 270°
2026-04-25 19:43 21.32772 -157.91780 26 ft 23 kts 270°
2026-04-25 19:43 21.32772 -157.91951 29 ft 22 kts 271°
2026-04-25 19:43 21.32798 -157.92088 31 ft 14 kts 310°
2026-04-25 19:43 21.32869 -157.92157 33 ft 13 kts 346°
2026-04-25 19:44 21.32956 -157.92149 35 ft 12 kts
2026-04-25 19:44 21.33041 -157.92137 37 ft 6 kts
2026-04-25 19:44 21.33067 -157.92119 38 ft 4 kts 70°
2026-04-25 19:44 21.33065 -157.92082 38 ft 4 kts 98°
2026-04-25 19:45 21.33062 -157.92062 38 ft 0 kts 101°